Location: Unspecified
(46.9223°N, 0.0000°E)
Time: 03:46:31
(UTC+00:00)

Injun/Solrad 3 - Visible Passes

Search period start: 04 April 2026 00:00
Search period end: 14 April 2026 00:00
Orbit: 870 x 986 km, 66.8° (Epoch: 29 March)

Date Brightness Start Highest point End Pass type
(mag) Time Alt. Az. Time Alt. Az. Time Alt. Az.
4 Apr 8.3 01:42:00 56° N 01:42:00 56° N 01:46:57 10° NNE visible
4 Apr 9.6 03:25:37 15° WNW 03:28:28 21° NNW 03:33:00 10° NNE visible
5 Apr 9.8 00:08:56 20° ENE 00:08:56 20° ENE 00:11:04 10° NE visible
5 Apr 8.5 01:52:33 49° NNW 01:52:33 49° NNW 01:57:57 10° NNE visible
5 Apr 9.9 03:36:11 10° WNW 03:40:01 17° NNW 03:43:56 10° NNE visible
6 Apr 9.4 00:19:27 28° NE 00:19:27 28° NE 00:22:23 10° NE visible
6 Apr 8.8 02:03:03 37° NW 02:03:13 37° NW 02:08:54 10° NNE visible
6 Apr 10.1 03:48:26 10° NW 03:51:38 14° NNW 03:54:54 10° NNE visible
7 Apr 9.0 00:29:56 37° NE 00:29:56 37° NE 00:33:34 10° NE visible
7 Apr 9.2 02:13:32 27° NW 02:14:33 28° NW 02:19:50 10° NNE visible
7 Apr 10.2 04:00:42 10° NW 04:03:19 13° NNW 04:05:58 10° NNE visible
7 Apr 10.3 22:56:46 11° ENE 22:56:46 11° ENE 22:56:56 10° ENE visible
8 Apr 8.7 00:40:23 46° NNE 00:40:23 46° NNE 00:44:38 10° NNE visible
8 Apr 9.6 02:23:59 19° WNW 02:25:59 22° NNW 02:30:45 10° NNE visible
8 Apr 10.3 04:12:52 10° NNW 04:15:03 12° N 04:17:15 10° NNE visible
8 Apr 9.9 23:07:11 16° ENE 23:07:11 16° ENE 23:08:37 10° NE visible
9 Apr 8.6 00:50:46 48° N 00:50:46 48° N 00:55:39 10° NNE visible
9 Apr 9.9 02:34:22 13° WNW 02:37:31 18° NNW 02:41:40 10° NNE visible
9 Apr 10.4 04:24:42 10° NNW 04:26:48 12° N 04:28:53 10° NNE visible
9 Apr 9.5 23:17:32 24° NE 23:17:32 24° NE 23:20:00 10° NE visible
10 Apr 8.8 01:01:08 40° NW 01:01:08 40° NW 01:06:37 10° NNE visible
10 Apr 10.1 02:45:40 10° NW 02:49:07 15° NNW 02:52:37 10° NNE visible
10 Apr 10.4 04:36:08 10° NNW 04:38:32 12° N 04:40:57 10° NNE visible
10 Apr 9.1 23:27:52 33° NE 23:27:52 33° NE 23:31:13 10° NE visible
11 Apr 9.2 01:11:27 30° NW 01:12:07 31° NW 01:17:33 10° NNE visible
11 Apr 10.3 02:57:57 10° NW 03:00:47 13° NNW 03:03:38 10° NNE visible
11 Apr 10.4 04:47:17 10° NNW 04:50:15 13° NNE 04:53:14 10° NE visible
11 Apr 8.7 23:38:07 46° NNE 23:38:07 46° NNE 23:42:19 10° NNE visible
12 Apr 9.6 01:21:43 21° WNW 01:23:31 24° NW 01:28:28 10° NNE visible
12 Apr 10.4 03:10:10 10° NNW 03:12:30 12° N 03:14:51 10° NNE visible
12 Apr 9.8 22:04:44 16° ENE 22:04:44 16° ENE 22:06:09 10° NE visible
12 Apr 8.5 23:48:19 53° N 23:48:19 53° N 23:53:21 10° NNE visible
13 Apr 10.0 01:31:54 14° WNW 01:35:01 19° NNW 01:39:23 10° NNE visible
13 Apr 10.5 03:22:08 10° NNW 03:24:14 12° N 03:26:22 10° NNE visible
13 Apr 9.3 22:14:52 25° ENE 22:14:52 25° ENE 22:17:36 10° NE visible
